RESURS O1 DEB, 23344

Orbit data source: Space-Track

RESURS O1 DEB, 23344 is space debris in SSO originally from a launch on Fri, 04 Nov 1994 UTC launched from the Tyuratam Missile And Space Complex (TTMTR). Debris objects in space refer to the collection of defunct objects orbiting the Earth. Examples of debris include non-operational satellites, rocket bodies, and fragments generated from explosions, collisions, or faulty payload assembly.

Loading next visibility...
Identifier
23344, 1994-074C
Orbit
SSO
Country
Flag of CISCIS
Related business
Manufacturer
Yuzhnoe
Mission
Spacecraft
Bus & Motor
SEP MOTOR COVER, Unknown motor
Mass
~0 kg wet, ~1 kg dry
Launch date (UTC)
1994-11-04 (31 years ago)
Launch vehicle
Unknown
Launch site
Tyuratam Missile And Space Complex (TTMTR)
Object type
Payload
Rocket body
Debris
Shape & HBR
Unknown shape, 0.2 m
Radar Cross Section
Small (<0.1 m²)

Expand to show TLE details & history
Last TLE update: 9 hours ago

TLE from 9 hours ago
0 RESURS O1 DEB
1 23344U 94074C   25343.50865318  .00002677  00000-0  52402-3 0  9991
2 23344  97.9659 354.3162 0116508 312.3752 200.8127 14.59386973645562
Epoch: 2025-12-09T12:12Z
TLE epoch observation values (Epoch: 2025-12-09T12:12:27.634Z)
Latitude
27.0338°
Longitude
-83.21842°
Altitude
775.683 km
Speed
7.428 km/s
True Right ascension
11h 53m 33s
True Declination
26° 53' 43"
Sunlit
Object was in daylight at epoch
Visualization orbit readout
Latitude
Unknown
Longitude
Unknown
Altitude
Unknown
Speed
Unknown
Apparent Right ascension
Unknown
Apparent Declination
Unknown
Sunlit
N/A
Visualization observer readout
Local Sidereal Time
19:07:12
Azimuth
Unknown
Elevation
Unknown
Doppler factor
Unknown
Orbital elements
Apogee altitude
774.6 km
Perigee altitude
609.85 km
Semi-major axis
7,070.362 km
Eccentricity
0.01165
Inclination
97.9659°
RAAN
354.3162°
Arg. of periapsis
312.3752°
True anomaly
200.34471°
Mean anomaly
200.8127°
Eccentric anomaly
200.57807°
Mean motion
3.65074 °/min
Orbital period
98.61 mins
BSTAR
0.00052402
Loading maneuver chart data...
Computing Atmospheric mass density...

Documentation

Showing up to 5 results
|